Location: The Saddle
(36.8333°N, 80.3417°W)
Time: 08:40:14
(UTC-05:00)

S-56A Canister/Altair - Pass Details

Date: 15 December 2023
Orbit: 640 x 2488 km, 38.9° (Epoch: 25 February)

Event Time Altitude Azimuth Distance (km) Brightness Sun altitude
Rises 08:49:44 0° 247° (WSW) 4,653 11.3 12.7°
Reaches altitude 10° 08:53:20 10° 246° (WSW) 3,372 10.6 13.2°
Maximum altitude 09:01:16 78° 162° (SSE) 993 8.5 14.3°
Drops below altitude 10° 09:06:38 10° 76° (ENE) 2,331 10.5 15.1°
Sets 09:08:44 0° 75° (ENE) 3,136 11.1 15.4°
